| time (UTC) | temp F | wind direction | speed MPH | gust MPH | rain 1hr in | rain 24hr in | rain mn in | humidity % | barometer mb |
| 20260903152028 | 81 | 298 | 1.0 | 9.0 | 0.00 | 0.94 | 0.86 | 82 | 1015.1 |
| 20260903151559 | 81 | 274 | 2.0 | 10.0 | 0.00 | 0.94 | 0.86 | 82 | 1015.0 |
| 20260903151028 | 80 | 276 | 4.0 | 10.0 | 0.00 | 0.94 | 0.86 | 81 | 1015.1 |
| 20260903150527 | 80 | 302 | 3.0 | 10.0 | 0.00 | 0.94 | 0.86 | 82 | 1015.1 |
| 20260903150110 | 79 | 296 | 2.0 | 10.0 | 0.00 | 0.94 | 0.86 | 83 | 1015.0 |
| 20260903145527 | 80 | 281 | 2.0 | 5.0 | 0.00 | 0.94 | 0.86 | 83 | 1015.0 |
| 20260903145028 | 79 | 327 | 1.0 | 7.0 | 0.00 | 0.94 | 0.86 | 84 | 1014.9 |
| 20260903144549 | 79 | 234 | 1.0 | 8.0 | 0.00 | 0.94 | 0.86 | 84 | 1014.9 |
| 20260903144027 | 78 | 274 | 2.0 | 8.0 | 0.00 | 0.94 | 0.86 | 85 | 1015.0 |
| 20260903143528 | 78 | 271 | 2.0 | 7.0 | 0.00 | 0.94 | 0.86 | 85 | 1015.0 |
| 20260903143100 | 78 | 292 | 2.0 | 12.0 | 0.00 | 0.94 | 0.86 | 85 | 1015.1 |
| 20260903142531 | 78 | 211 | 3.0 | 12.0 | 0.00 | 0.94 | 0.86 | 85 | 1015.2 |
| 20260903142025 | 77 | 252 | 3.0 | 11.0 | 0.00 | 0.94 | 0.86 | 85 | 1015.1 |
| 20260903141558 | 77 | 245 | 3.0 | 12.0 | 0.00 | 0.94 | 0.86 | 85 | 1015.0 |
| 20260903141028 | 77 | 259 | 3.0 | 12.0 | 0.00 | 0.94 | 0.86 | 85 | 1015.1 |
| 20260903140528 | 77 | 279 | 2.0 | 4.0 | 0.00 | 0.94 | 0.86 | 86 | 1014.9 |
| 20260903140050 | 77 | 309 | 1.0 | 11.0 | 0.00 | 0.94 | 0.86 | 88 | 1015.0 |
| 20260903135528 | 76 | 274 | 3.0 | 11.0 | 0.00 | 0.94 | 0.86 | 87 | 1014.6 |
| 20260903135025 | 76 | 251 | 4.0 | 10.0 | 0.00 | 0.94 | 0.86 | 88 | 1014.4 |
| 20260903134546 | 76 | 234 | 2.0 | 5.0 | 0.00 | 0.94 | 0.86 | 88 | 1014.1 |
| 20260903134027 | 76 | 282 | 1.0 | 8.0 | 0.00 | 0.94 | 0.86 | 89 | 1014.2 |
| 20260903133525 | 75 | 115 | 1.0 | 8.0 | 0.00 | 0.94 | 0.86 | 91 | 1014.2 |
| 20260903133047 | 74 | 0 | 1.0 | 4.0 | 0.00 | 0.94 | 0.86 | 91 | 1014.3 |
| 20260903132527 | 74 | 246 | 1.0 | 4.0 | 0.00 | 0.94 | 0.86 | 91 | 1014.4 |
| 20260903132025 | 74 | 242 | 0.0 | 3.0 | 0.00 | 0.94 | 0.86 | 92 | 1014.4 |
| 20260903131547 | 73 | 255 | 0.0 | 3.0 | 0.00 | 0.94 | 0.86 | 93 | 1014.7 |
| 20260903131030 | 73 | 259 | 0.0 | 8.0 | 0.01 | 0.94 | 0.86 | 93 | 1014.7 |
| 20260903130529 | 73 | 304 | 2.0 | 8.0 | 0.01 | 0.94 | 0.86 | 93 | 1014.6 |
| 20260903130049 | 73 | 259 | 1.0 | 8.0 | 0.01 | 0.94 | 0.86 | 94 | 1014.5 |
| 20260903125528 | 72 | 283 | 1.0 | 6.0 | 0.01 | 0.94 | 0.86 | 95 | 1014.9 |
| 20260903125029 | 72 | 223 | 2.0 | 6.0 | 0.01 | 0.94 | 0.86 | 95 | 1014.6 |
| 20260903124600 | 71 | 259 | 1.0 | 5.0 | 0.01 | 0.94 | 0.86 | 95 | 1014.7 |
| 20260903124028 | 71 | 271 | 0.0 | 3.0 | 0.01 | 0.94 | 0.86 | 95 | 1014.5 |
| 20260903123529 | 71 | 22 | 1.0 | 10.0 | 0.01 | 0.94 | 0.86 | 95 | 1014.5 |
| 20260903123046 | 71 | 240 | 1.0 | 10.0 | 0.01 | 0.94 | 0.86 | 95 | 1013.8 |
| 20260903122528 | 71 | 202 | 3.0 | 10.0 | 0.01 | 0.94 | 0.86 | 95 | 1013.7 |
| 20260903122025 | 71 | 190 | 2.0 | 7.0 | 0.01 | 0.94 | 0.86 | 96 | 1014.0 |
| 20260903121554 | 71 | 193 | 2.0 | 9.0 | 0.01 | 0.94 | 0.86 | 96 | 1015.0 |
| 20260903121025 | 71 | 112 | 3.0 | 9.0 | 0.00 | 0.93 | 0.85 | 96 | 1015.4 |
| 20260903120527 | 71 | 286 | 2.0 | 8.0 | 0.00 | 0.93 | 0.85 | 96 | 1015.7 |
| 20260903120051 | 71 | 220 | 2.0 | 4.0 | 0.00 | 0.93 | 0.85 | 96 | 1016.1 |
| 20260903115526 | 71 | 285 | 1.0 | 3.0 | 0.00 | 0.93 | 0.85 | 96 | 1016.0 |
| 20260903115028 | 71 | 217 | 1.0 | 3.0 | 0.00 | 0.93 | 0.85 | 96 | 1015.8 |
| 20260903114609 | 71 | 238 | 1.0 | 4.0 | 0.00 | 0.93 | 0.85 | 96 | 1015.9 |
| 20260903114027 | 71 | 234 | 2.0 | 4.0 | 0.00 | 0.93 | 0.85 | 96 | 1016.1 |
| 20260903113531 | 71 | 253 | 1.0 | 2.0 | 0.00 | 0.93 | 0.85 | 96 | 1016.4 |
| 20260903113046 | 71 | 269 | 0.0 | 2.0 | 0.00 | 0.93 | 0.85 | 96 | 1016.2 |
| 20260903112525 | 71 | 267 | 0.0 | 2.0 | 0.00 | 0.93 | 0.85 | 96 | 1016.2 |
| 20260903112031 | 70 | 0 | 0.0 | 5.0 | 0.00 | 0.93 | 0.85 | 96 | 1016.2 |
| 20260903111550 | 70 | 0 | 0.0 | 5.0 | 0.00 | 0.93 | 0.85 | 96 | 1016.1 |
| 20260903111029 | 70 | 0 | 1.0 | 5.0 | 0.00 | 0.93 | 0.85 | 96 | 1016.3 |
| 20260903110528 | 70 | 252 | 0.0 | 3.0 | 0.00 | 0.93 | 0.85 | 96 | 1016.2 |
| 20260903110050 | 70 | 280 | 0.0 | 3.0 | 0.00 | 0.93 | 0.85 | 96 | 1016.2 |
| 20260903105528 | 70 | 272 | 1.0 | 6.0 | 0.00 | 0.93 | 0.85 | 96 | 1016.2 |
| 20260903105028 | 70 | 249 | 0.0 | 6.0 | 0.00 | 0.93 | 0.85 | 96 | 1015.7 |
| 20260903104548 | 70 | 279 | 1.0 | 3.0 | 0.00 | 0.93 | 0.85 | 96 | 1015.7 |
| 20260903104028 | 70 | 281 | 0.0 | 2.0 | 0.00 | 0.93 | 0.85 | 96 | 1015.6 |
| 20260903103525 | 70 | 254 | 0.0 | 3.0 | 0.00 | 0.93 | 0.85 | 96 | 1015.4 |
| 20260903103052 | 70 | 210 | 0.0 | 3.0 | 0.02 | 0.93 | 0.85 | 96 | 1015.3 |
| 20260903102525 | 70 | 298 | 1.0 | 3.0 | 0.02 | 0.93 | 0.85 | 96 | 1015.4 |
| 20260903102027 | 70 | 250 | 0.0 | 3.0 | 0.03 | 0.93 | 0.85 | 96 | 1015.7 |
| 20260903101548 | 70 | 196 | 1.0 | 3.0 | 0.05 | 0.93 | 0.85 | 96 | 1015.8 |
| 20260903101028 | 70 | 233 | 0.0 | 3.0 | 0.07 | 0.93 | 0.85 | 96 | 1015.9 |
| 20260903100527 | 70 | 0 | 0.0 | 3.0 | 0.12 | 0.93 | 0.85 | 96 | 1015.9 |
| 20260903100057 | 70 | 230 | 0.0 | 2.0 | 0.23 | 0.93 | 0.85 | 96 | 1016.1 |
| 20260903095527 | 70 | 175 | 0.0 | 2.0 | 0.37 | 0.93 | 0.85 | 96 | 1016.0 |
| 20260903095028 | 70 | 157 | 0.0 | 2.0 | 0.39 | 0.93 | 0.85 | 96 | 1016.2 |
| 20260903094556 | 70 | 226 | 1.0 | 2.0 | 0.39 | 0.93 | 0.85 | 96 | 1016.3 |
| 20260903094028 | 70 | 0 | 0.0 | 2.0 | 0.39 | 0.93 | 0.85 | 96 | 1016.6 |
| 20260903093534 | 70 | 0 | 0.0 | 2.0 | 0.38 | 0.92 | 0.84 | 96 | 1016.5 |
| 20260903093124 | 70 | 252 | 0.0 | 3.0 | 0.37 | 0.91 | 0.83 | 96 | 1016.5 |
| 20260903092529 | 70 | 208 | 1.0 | 3.0 | 0.39 | 0.91 | 0.83 | 96 | 1016.4 |
| 20260903092028 | 70 | 155 | 1.0 | 2.0 | 0.39 | 0.90 | 0.82 | 96 | 1016.6 |
| 20260903091553 | 70 | 139 | 0.0 | 2.0 | 0.37 | 0.88 | 0.80 | 96 | 1017.1 |
| 20260903091028 | 70 | 0 | 0.0 | 6.0 | 0.36 | 0.86 | 0.78 | 96 | 1017.4 |
| 20260903090528 | 70 | 337 | 0.0 | 8.0 | 0.30 | 0.80 | 0.72 | 96 | 1018.0 |
| 20260903090048 | 70 | 288 | 1.0 | 9.0 | 0.18 | 0.68 | 0.60 | 96 | 1018.5 |
| 20260903085528 | 70 | 12 | 4.0 | 9.0 | 0.04 | 0.54 | 0.46 | 96 | 1018.3 |
| 20260903085027 | 70 | 330 | 2.0 | 9.0 | 0.04 | 0.54 | 0.46 | 96 | 1017.3 |
| 20260903084547 | 70 | 344 | 1.0 | 1.0 | 0.04 | 0.54 | 0.46 | 96 | 1016.6 |
| 20260903084025 | 70 | 0 | 0.0 | 2.0 | 0.04 | 0.54 | 0.46 | 96 | 1016.1 |
| 20260903083528 | 70 | 0 | 0.0 | 2.0 | 0.04 | 0.54 | 0.46 | 96 | 1016.1 |
| 20260903083041 | 70 | 99 | 0.0 | 0.0 | 0.04 | 0.54 | 0.46 | 96 | 1015.9 |
| 20260903082531 | 70 | 155 | 0.0 | 1.0 | 0.02 | 0.52 | 0.44 | 96 | 1015.8 |
| 20260903082028 | 70 | 0 | 0.0 | 1.0 | 0.01 | 0.51 | 0.43 | 96 | 1016.3 |
| 20260903081550 | 70 | 155 | 0.0 | 1.0 | 0.01 | 0.51 | 0.43 | 96 | 1016.1 |
| 20260903081030 | 70 | 155 | 0.0 | 2.0 | 0.00 | 0.50 | 0.42 | 96 | 1016.1 |
| 20260903080532 | 70 | 0 | 1.0 | 2.0 | 0.00 | 0.50 | 0.42 | 96 | 1015.9 |
| 20260903080046 | 70 | 185 | 0.0 | 1.0 | 0.01 | 0.50 | 0.42 | 96 | 1016.0 |
| 20260903075528 | 70 | 186 | 0.0 | 1.0 | 0.02 | 0.50 | 0.42 | 96 | 1016.1 |
| 20260903075031 | 70 | 0 | 0.0 | 1.0 | 0.04 | 0.50 | 0.42 | 96 | 1016.3 |
| 20260903074547 | 70 | 0 | 0.0 | 2.0 | 0.04 | 0.50 | 0.42 | 96 | 1016.2 |
| 20260903074028 | 70 | 0 | 0.0 | 2.0 | 0.05 | 0.50 | 0.42 | 96 | 1016.1 |
| 20260903073528 | 70 | 0 | 0.0 | 2.0 | 0.05 | 0.50 | 0.42 | 96 | 1016.0 |
| 20260903073053 | 70 | 0 | 0.0 | 2.0 | 0.06 | 0.50 | 0.42 | 96 | 1015.9 |
| 20260903072527 | 70 | 0 | 0.0 | 2.0 | 0.06 | 0.50 | 0.42 | 96 | 1016.0 |
| 20260903072027 | 70 | 124 | 0.0 | 2.0 | 0.07 | 0.50 | 0.42 | 95 | 1016.1 |
| 20260903071615 | 70 | 0 | 1.0 | 2.0 | 0.12 | 0.50 | 0.42 | 95 | 1016.0 |
| 20260903071029 | 70 | 209 | 0.0 | 3.0 | 0.30 | 0.50 | 0.42 | 95 | 1016.1 |
| 20260903070531 | 70 | 0 | 0.0 | 3.0 | 0.42 | 0.50 | 0.42 | 95 | 1016.1 |
| 20260903070100 | 70 | 68 | 0.0 | 3.0 | 0.41 | 0.49 | 0.41 | 95 | 1016.0 |
| 20260903065528 | 70 | 144 | 1.0 | 3.0 | 0.39 | 0.47 | 0.39 | 95 | 1016.2 |
| 20260903065027 | 70 | 215 | 1.0 | 4.0 | 0.38 | 0.46 | 0.38 | 95 | 1016.3 |
| 20260903064546 | 70 | 166 | 1.0 | 4.0 | 0.38 | 0.46 | 0.38 | 95 | 1016.4 |
| 20260903064028 | 70 | 115 | 1.0 | 4.0 | 0.37 | 0.45 | 0.37 | 95 | 1016.3 |
| 20260903063528 | 70 | 103 | 1.0 | 4.0 | 0.37 | 0.45 | 0.37 | 95 | 1016.7 |
| 20260903063103 | 70 | 109 | 0.0 | 4.0 | 0.36 | 0.44 | 0.36 | 95 | 1017.4 |
| 20260903062527 | 70 | 49 | 0.0 | 6.0 | 0.35 | 0.43 | 0.35 | 95 | 1017.7 |
| 20260903062029 | 70 | 54 | 1.0 | 6.0 | 0.34 | 0.42 | 0.34 | 94 | 1017.9 |
| 20260903061550 | 70 | 329 | 1.0 | 5.0 | 0.28 | 0.36 | 0.28 | 94 | 1018.3 |
| 20260903061029 | 70 | 350 | 1.0 | 6.0 | 0.08 | 0.16 | 0.08 | 94 | 1018.6 |
| 20260903060529 | 71 | 311 | 1.0 | 6.0 | 0.00 | 0.08 | 0.00 | 94 | 1018.2 |
| 20260903060050 | 70 | 51 | 3.0 | 6.0 | 0.00 | 0.08 | 0.00 | 94 | 1017.4 |
| 20260903055529 | 71 | 42 | 2.0 | 4.0 | 0.00 | 0.08 | 0.00 | 94 | 1016.9 |
| 20260903055026 | 71 | 0 | 0.0 | 3.0 | 0.00 | 0.08 | 0.00 | 94 | 1017.0 |
| 20260903054549 | 71 | 37 | 1.0 | 3.0 | 0.00 | 0.08 | 0.00 | 94 | 1016.8 |
| 20260903054028 | 71 | 49 | 1.0 | 3.0 | 0.00 | 0.08 | 0.00 | 94 | 1016.5 |
| 20260903053528 | 71 | 46 | 1.0 | 2.0 | 0.00 | 0.08 | 0.00 | 94 | 1016.7 |
| 20260903053046 | 71 | 101 | 0.0 | 1.0 | 0.00 | 0.08 | 0.00 | 94 | 1016.8 |
| 20260903052530 | 71 | 0 | 0.0 | 1.0 | 0.00 | 0.08 | 0.00 | 94 | 1016.8 |
| 20260903052029 | 71 | 0 | 0.0 | 2.0 | 0.00 | 0.08 | 0.00 | 94 | 1016.7 |
| 20260903051546 | 71 | 81 | 0.0 | 2.0 | 0.00 | 0.08 | 0.00 | 94 | 1016.7 |
| 20260903051027 | 71 | 55 | 0.0 | 2.0 | 0.00 | 0.08 | 0.00 | 94 | 1016.5 |
| 20260903050527 | 71 | 69 | 0.0 | 2.0 | 0.00 | 0.08 | 0.00 | 93 | 1016.7 |
| 20260903045529 | 71 | 0 | 0.0 | 2.0 | 0.00 | 0.08 | 0.00 | 93 | 1016.6 |
| 20260903045028 | 71 | 88 | 0.0 | 2.0 | 0.00 | 0.08 | 0.00 | 93 | 1016.9 |
| 20260903044558 | 71 | 55 | 0.0 | 2.0 | 0.00 | 0.08 | 0.00 | 93 | 1016.9 |
| 20260903044028 | 71 | 59 | 0.0 | 2.0 | 0.00 | 0.08 | 0.00 | 93 | 1017.0 |
| 20260903043528 | 71 | 101 | 0.0 | 2.0 | 0.00 | 0.08 | 0.00 | 93 | 1016.9 |
| 20260903043047 | 71 | 88 | 1.0 | 2.0 | 0.00 | 0.08 | 0.00 | 93 | 1017.0 |
| 20260903042530 | 71 | 87 | 0.0 | 2.0 | 0.00 | 0.08 | 0.00 | 93 | 1017.2 |
| 20260903042025 | 71 | 50 | 0.0 | 2.0 | 0.00 | 0.08 | 0.00 | 93 | 1017.3 |
| 20260903041558 | 71 | 0 | 0.0 | 1.0 | 0.00 | 0.08 | 0.00 | 93 | 1017.4 |
| 20260903041028 | 71 | 0 | 0.0 | 1.0 | 0.00 | 0.08 | 0.00 | 93 | 1017.3 |
| 20260903040528 | 71 | 69 | 0.0 | 1.0 | 0.00 | 0.08 | 0.00 | 93 | 1017.5 |
| 20260903035529 | 71 | 0 | 0.0 | 2.0 | 0.00 | 0.08 | 0.08 | 93 | 1017.5 |
| 20260903035030 | 71 | 80 | 0.0 | 2.0 | 0.00 | 0.08 | 0.08 | 93 | 1017.4 |
| 20260903034556 | 71 | 0 | 0.0 | 1.0 | 0.00 | 0.08 | 0.08 | 93 | 1017.5 |
| 20260903034028 | 71 | 0 | 0.0 | 1.0 | 0.00 | 0.08 | 0.08 | 93 | 1017.3 |
| 20260903033527 | 71 | 0 | 0.0 | 1.0 | 0.00 | 0.08 | 0.08 | 93 | 1017.3 |
| 20260903033046 | 71 | 0 | 0.0 | 0.0 | 0.00 | 0.08 | 0.08 | 93 | 1017.4 |
| 20260903032528 | 71 | 0 | 0.0 | 2.0 | 0.00 | 0.08 | 0.08 | 92 | 1017.3 |
| 20260903032028 | 71 | 0 | 0.0 | 3.0 | 0.00 | 0.08 | 0.08 | 92 | 1017.2 |
| 20260903031547 | 71 | 0 | 0.0 | 3.0 | 0.00 | 0.08 | 0.08 | 92 | 1017.3 |
| 20260903031028 | 71 | 121 | 1.0 | 3.0 | 0.00 | 0.08 | 0.08 | 92 | 1017.2 |
| 20260903030534 | 71 | 161 | 0.0 | 2.0 | 0.00 | 0.08 | 0.08 | 92 | 1017.5 |
| 20260903030054 | 71 | 109 | 0.0 | 2.0 | 0.00 | 0.08 | 0.08 | 92 | 1017.6 |
| 20260903025530 | 71 | 116 | 0.0 | 2.0 | 0.00 | 0.08 | 0.08 | 92 | 1017.6 |
| 20260903025028 | 71 | 0 | 0.0 | 4.0 | 0.00 | 0.08 | 0.08 | 92 | 1017.7 |
| 20260903024553 | 71 | 0 | 1.0 | 4.0 | 0.00 | 0.08 | 0.08 | 92 | 1017.5 |
| 20260903024027 | 71 | 0 | 0.0 | 6.0 | 0.00 | 0.08 | 0.08 | 92 | 1017.5 |
| 20260903023527 | 71 | 0 | 0.0 | 6.0 | 0.00 | 0.08 | 0.08 | 92 | 1017.6 |
| 20260903023048 | 71 | 105 | 1.0 | 3.0 | 0.00 | 0.08 | 0.08 | 92 | 1017.4 |
| 20260903022525 | 71 | 110 | 1.0 | 3.0 | 0.00 | 0.08 | 0.08 | 92 | 1017.2 |
| 20260903022028 | 71 | 183 | 0.0 | 4.0 | 0.00 | 0.08 | 0.08 | 92 | 1017.1 |
| 20260903021558 | 72 | 217 | 1.0 | 4.0 | 0.00 | 0.08 | 0.08 | 92 | 1017.1 |
| 20260903021028 | 72 | 95 | 2.0 | 4.0 | 0.00 | 0.08 | 0.08 | 92 | 1017.1 |
| 20260903020530 | 72 | 136 | 1.0 | 6.0 | 0.00 | 0.08 | 0.08 | 92 | 1017.2 |
| 20260903020044 | 72 | 146 | 1.0 | 6.0 | 0.00 | 0.08 | 0.08 | 91 | 1017.1 |
| 20260903015526 | 72 | 145 | 1.0 | 4.0 | 0.00 | 0.18 | 0.08 | 91 | 1017.1 |
| 20260903015029 | 72 | 0 | 0.0 | 6.0 | 0.00 | 0.18 | 0.08 | 91 | 1017.4 |
| 20260903014603 | 72 | 122 | 1.0 | 6.0 | 0.00 | 0.18 | 0.08 | 91 | 1017.3 |
| 20260903014031 | 72 | 93 | 1.0 | 7.0 | 0.00 | 0.18 | 0.08 | 91 | 1017.5 |
| 20260903013526 | 72 | 0 | 1.0 | 7.0 | 0.00 | 0.18 | 0.08 | 91 | 1017.5 |
| 20260903013059 | 72 | 142 | 2.0 | 5.0 | 0.00 | 0.18 | 0.08 | 91 | 1017.5 |
| 20260903012526 | 72 | 142 | 0.0 | 3.0 | 0.00 | 0.18 | 0.08 | 91 | 1017.5 |
| 20260903012029 | 72 | 128 | 1.0 | 2.0 | 0.00 | 0.18 | 0.08 | 91 | 1017.5 |
| 20260903011548 | 72 | 126 | 0.0 | 6.0 | 0.00 | 0.18 | 0.08 | 91 | 1017.6 |
| 20260903011032 | 72 | 126 | 2.0 | 6.0 | 0.00 | 0.18 | 0.08 | 91 | 1017.5 |
| 20260903010527 | 72 | 123 | 0.0 | 3.0 | 0.00 | 0.18 | 0.08 | 91 | 1017.5 |
| 20260903010046 | 72 | 88 | 1.0 | 3.0 | 0.00 | 0.18 | 0.08 | 91 | 1017.4 |
| 20260903005525 | 72 | 138 | 0.0 | 3.0 | 0.00 | 0.36 | 0.08 | 90 | 1017.5 |
| 20260903005025 | 72 | 0 | 1.0 | 3.0 | 0.00 | 0.36 | 0.08 | 90 | 1017.7 |
| 20260903004557 | 72 | 0 | 1.0 | 4.0 | 0.00 | 0.36 | 0.08 | 90 | 1017.7 |
| 20260903004028 | 72 | 138 | 0.0 | 4.0 | 0.00 | 0.36 | 0.08 | 90 | 1017.6 |
| 20260903003528 | 72 | 117 | 1.0 | 4.0 | 0.00 | 0.36 | 0.08 | 90 | 1017.6 |
| 20260903003105 | 72 | 121 | 1.0 | 3.0 | 0.00 | 0.36 | 0.08 | 90 | 1017.7 |
| 20260903002530 | 72 | 95 | 1.0 | 3.0 | 0.00 | 0.36 | 0.08 | 90 | 1017.6 |
| 20260903002025 | 72 | 0 | 0.0 | 2.0 | 0.00 | 0.36 | 0.08 | 90 | 1017.5 |
| 20260903001546 | 72 | 109 | 0.0 | 2.0 | 0.00 | 0.36 | 0.08 | 90 | 1017.4 |
| 20260903001025 | 72 | 0 | 1.0 | 2.0 | 0.00 | 0.36 | 0.08 | 90 | 1017.4 |
| 20260903000525 | 72 | 57 | 0.0 | 3.0 | 0.00 | 0.36 | 0.08 | 90 | 1017.3 |
| 20260903000058 | 73 | 0 | 1.0 | 3.0 | 0.00 | 0.36 | 0.08 | 90 | 1017.3 |
| 20260902235528 | 73 | 159 | 0.0 | 2.0 | 0.00 | 0.36 | 0.08 | 90 | 1017.2 |
| 20260902235026 | 73 | 0 | 0.0 | 1.0 | 0.00 | 0.36 | 0.08 | 90 | 1017.1 |
| 20260902234552 | 73 | 0 | 0.0 | 1.0 | 0.00 | 0.36 | 0.08 | 90 | 1017.1 |
| 20260902234027 | 73 | 126 | 0.0 | 2.0 | 0.00 | 0.36 | 0.08 | 90 | 1017.2 |
| 20260902233524 | 73 | 127 | 0.0 | 4.0 | 0.00 | 0.36 | 0.08 | 90 | 1017.0 |
| 20260902233048 | 73 | 0 | 0.0 | 4.0 | 0.00 | 0.36 | 0.08 | 90 | 1017.0 |
| 20260902232529 | 73 | 109 | 1.0 | 4.0 | 0.00 | 0.36 | 0.08 | 89 | 1017.1 |
| 20260902232029 | 73 | 96 | 2.0 | 4.0 | 0.00 | 0.36 | 0.08 | 89 | 1017.1 |
| 20260902231548 | 73 | 175 | 1.0 | 6.0 | 0.00 | 0.36 | 0.08 | 89 | 1017.0 |
| 20260902231026 | 73 | 88 | 2.0 | 6.0 | 0.00 | 0.36 | 0.08 | 89 | 1017.2 |
| 20260902230527 | 73 | 88 | 1.0 | 4.0 | 0.00 | 0.36 | 0.08 | 89 | 1017.1 |
| 20260902230048 | 73 | 107 | 1.0 | 4.0 | 0.00 | 0.36 | 0.08 | 89 | 1017.3 |
| 20260902225528 | 73 | 84 | 1.0 | 3.0 | 0.00 | 0.36 | 0.08 | 89 | 1017.4 |
| 20260902225028 | 73 | 78 | 1.0 | 6.0 | 0.00 | 0.36 | 0.08 | 89 | 1017.4 |
| 20260902224607 | 73 | 114 | 0.0 | 6.0 | 0.00 | 0.36 | 0.08 | 89 | 1017.4 |
| 20260902224027 | 73 | 90 | 2.0 | 6.0 | 0.00 | 0.36 | 0.08 | 88 | 1017.4 |
| 20260902223526 | 74 | 88 | 1.0 | 3.0 | 0.00 | 0.36 | 0.08 | 89 | 1017.5 |
| 20260902223054 | 74 | 73 | 1.0 | 3.0 | 0.00 | 0.36 | 0.08 | 89 | 1017.6 |
| 20260902222528 | 74 | 143 | 1.0 | 4.0 | 0.00 | 0.36 | 0.08 | 89 | 1017.5 |
| 20260902222029 | 74 | 122 | 1.0 | 4.0 | 0.00 | 0.36 | 0.08 | 89 | 1017.6 |
| 20260902221548 | 74 | 105 | 2.0 | 6.0 | 0.00 | 0.36 | 0.08 | 89 | 1017.5 |
| 20260902221027 | 74 | 117 | 1.0 | 8.0 | 0.00 | 0.36 | 0.08 | 89 | 1017.6 |
| 20260902220526 | 74 | 74 | 3.0 | 9.0 | 0.00 | 0.36 | 0.08 | 89 | 1017.4 |
| 20260902220049 | 74 | 33 | 4.0 | 9.0 | 0.00 | 0.36 | 0.08 | 88 | 1017.4 |
| 20260902215527 | 74 | 124 | 1.0 | 8.0 | 0.00 | 0.36 | 0.08 | 89 | 1017.4 |
| 20260902215029 | 74 | 132 | 2.0 | 8.0 | 0.00 | 0.36 | 0.08 | 89 | 1017.3 |
| 20260902214613 | 74 | 89 | 2.0 | 8.0 | 0.00 | 0.36 | 0.08 | 89 | 1017.3 |
| 20260902214028 | 74 | 160 | 3.0 | 8.0 | 0.00 | 0.36 | 0.08 | 89 | 1017.1 |
| 20260902213531 | 74 | 100 | 0.0 | 6.0 | 0.00 | 0.36 | 0.08 | 89 | 1017.3 |
| 20260902213042 | 74 | 128 | 1.0 | 7.0 | 0.00 | 0.36 | 0.08 | 90 | 1017.3 |
| 20260902212525 | 74 | 120 | 2.0 | 9.0 | 0.00 | 0.36 | 0.08 | 89 | 1017.4 |
| 20260902212032 | 74 | 111 | 2.0 | 10.0 | 0.00 | 0.36 | 0.08 | 89 | 1017.4 |
| 20260902211552 | 74 | 90 | 4.0 | 10.0 | 0.00 | 0.36 | 0.08 | 89 | 1017.4 |
| 20260902211026 | 74 | 65 | 4.0 | 10.0 | 0.00 | 0.36 | 0.08 | 89 | 1017.4 |
| 20260902210527 | 74 | 101 | 2.0 | 7.0 | 0.00 | 0.36 | 0.08 | 90 | 1017.4 |
| 20260902210049 | 74 | 63 | 3.0 | 7.0 | 0.00 | 0.36 | 0.08 | 89 | 1017.5 |
| 20260902205526 | 74 | 139 | 2.0 | 7.0 | 0.00 | 0.36 | 0.08 | 91 | 1017.6 |
| 20260902205026 | 74 | 109 | 2.0 | 7.0 | 0.00 | 0.36 | 0.08 | 91 | 1017.6 |
| 20260902204543 | 73 | 114 | 3.0 | 7.0 | 0.00 | 0.36 | 0.08 | 91 | 1017.3 |
| 20260902204026 | 73 | 0 | 0.0 | 5.0 | 0.00 | 0.36 | 0.08 | 92 | 1017.4 |
| 20260902203528 | 73 | 92 | 2.0 | 8.0 | 0.00 | 0.36 | 0.08 | 92 | 1017.4 |
| 20260902203045 | 73 | 53 | 2.0 | 8.0 | 0.00 | 0.36 | 0.08 | 93 | 1017.3 |
| 20260902202527 | 73 | 136 | 1.0 | 9.0 | 0.00 | 0.36 | 0.08 | 93 | 1017.3 |
| 20260902202029 | 73 | 79 | 3.0 | 9.0 | 0.00 | 0.36 | 0.08 | 93 | 1017.1 |
| 20260902201602 | 73 | 126 | 2.0 | 7.0 | 0.00 | 0.36 | 0.08 | 93 | 1017.1 |
| 20260902201024 | 73 | 133 | 1.0 | 4.0 | 0.00 | 0.36 | 0.08 | 93 | 1017.3 |
| 20260902200527 | 73 | 76 | 1.0 | 3.0 | 0.00 | 0.36 | 0.08 | 93 | 1017.4 |
| 20260902200049 | 73 | 0 | 0.0 | 4.0 | 0.00 | 0.36 | 0.08 | 93 | 1017.5 |
| 20260902195525 | 73 | 82 | 1.0 | 7.0 | 0.00 | 0.36 | 0.08 | 93 | 1017.6 |
| 20260902195027 | 73 | 0 | 1.0 | 7.0 | 0.00 | 0.36 | 0.08 | 93 | 1017.6 |
| 20260902194551 | 73 | 65 | 0.0 | 4.0 | 0.00 | 0.36 | 0.08 | 94 | 1017.6 |
| 20260902194028 | 73 | 90 | 2.0 | 4.0 | 0.00 | 0.36 | 0.08 | 93 | 1017.6 |
| 20260902193528 | 73 | 0 | 1.0 | 3.0 | 0.00 | 0.36 | 0.08 | 94 | 1017.7 |
| 20260902193053 | 73 | 55 | 1.0 | 3.0 | 0.01 | 0.36 | 0.08 | 94 | 1017.7 |
| 20260902192527 | 73 | 83 | 0.0 | 2.0 | 0.02 | 0.36 | 0.08 | 93 | 1017.7 |
| 20260902192027 | 73 | 106 | 0.0 | 2.0 | 0.03 | 0.36 | 0.08 | 93 | 1017.7 |
| 20260902191552 | 73 | 97 | 0.0 | 2.0 | 0.04 | 0.36 | 0.08 | 93 | 1017.7 |
| 20260902191031 | 73 | 88 | 0.0 | 2.0 | 0.06 | 0.36 | 0.08 | 93 | 1017.8 |
| 20260902190526 | 73 | 89 | 0.0 | 2.0 | 0.07 | 0.36 | 0.08 | 93 | 1017.9 |
| 20260902190047 | 73 | 47 | 0.0 | 1.0 | 0.08 | 0.36 | 0.08 | 93 | 1018.1 |
| 20260902185526 | 73 | 0 | 0.0 | 1.0 | 0.08 | 0.36 | 0.08 | 92 | 1018.1 |
| 20260902185029 | 73 | 0 | 0.0 | 4.0 | 0.08 | 0.36 | 0.08 | 92 | 1018.0 |
| 20260902184551 | 73 | 107 | 0.0 | 4.0 | 0.08 | 0.36 | 0.08 | 92 | 1017.8 |
| 20260902184028 | 73 | 0 | 1.0 | 4.0 | 0.08 | 0.36 | 0.08 | 91 | 1017.6 |
| 20260902183529 | 73 | 117 | 0.0 | 3.0 | 0.08 | 0.36 | 0.08 | 91 | 1017.5 |
| 20260902183054 | 73 | 138 | 1.0 | 8.0 | 0.07 | 0.35 | 0.07 | 91 | 1017.7 |
| 20260902182527 | 74 | 150 | 2.0 | 8.0 | 0.06 | 0.34 | 0.06 | 90 | 1017.8 |
| 20260902182025 | 74 | 173 | 1.0 | 4.0 | 0.05 | 0.33 | 0.05 | 89 | 1018.0 |
| 20260902181557 | 74 | 157 | 1.0 | 5.0 | 0.03 | 0.31 | 0.03 | 88 | 1018.1 |
| 20260902181025 | 75 | 119 | 2.0 | 5.0 | 0.02 | 0.30 | 0.02 | 87 | 1018.5 |
| 20260902180527 | 75 | 148 | 1.0 | 5.0 | 0.01 | 0.29 | 0.01 | 86 | 1018.5 |
| 20260902180051 | 75 | 148 | 1.0 | 4.0 | 0.00 | 0.28 | 0.00 | 86 | 1018.8 |
| 20260902175525 | 75 | 130 | 0.0 | 2.0 | 0.00 | 0.28 | 0.00 | 86 | 1019.0 |
| 20260902175028 | 75 | 139 | 0.0 | 2.0 | 0.00 | 0.28 | 0.00 | 86 | 1019.1 |
| 20260902174557 | 75 | 140 | 0.0 | 3.0 | 0.00 | 0.28 | 0.00 | 86 | 1019.1 |
| 20260902174024 | 75 | 96 | 0.0 | 3.0 | 0.00 | 0.28 | 0.00 | 86 | 1019.1 |
| 20260902173528 | 75 | 46 | 0.0 | 2.0 | 0.00 | 0.28 | 0.00 | 85 | 1019.4 |
| 20260902173047 | 75 | 89 | 0.0 | 2.0 | 0.00 | 0.28 | 0.00 | 86 | 1019.3 |
| 20260902172526 | 75 | 101 | 0.0 | 3.0 | 0.00 | 0.28 | 0.00 | 85 | 1019.4 |
| 20260902172026 | 75 | 79 | 1.0 | 3.0 | 0.00 | 0.28 | 0.00 | 84 | 1019.5 |
| 20260902171547 | 75 | 102 | 0.0 | 2.0 | 0.00 | 0.28 | 0.00 | 84 | 1019.5 |
| 20260902171024 | 76 | 0 | 0.0 | 2.0 | 0.00 | 0.28 | 0.00 | 84 | 1019.5 |
| 20260902170527 | 76 | 49 | 1.0 | 3.0 | 0.00 | 0.28 | 0.00 | 83 | 1019.3 |
| 20260902170045 | 76 | 122 | 0.0 | 4.0 | 0.00 | 0.28 | 0.00 | 84 | 1019.3 |
| 20260902165527 | 76 | 49 | 2.0 | 4.0 | 0.00 | 0.28 | 0.00 | 84 | 1018.8 |
| 20260902165027 | 77 | 92 | 1.0 | 4.0 | 0.00 | 0.28 | 0.00 | 84 | 1018.7 |
| 20260902164553 | 77 | 112 | 2.0 | 5.0 | 0.00 | 0.28 | 0.00 | 84 | 1018.6 |
| 20260902164028 | 77 | 165 | 1.0 | 5.0 | 0.00 | 0.28 | 0.00 | 85 | 1018.6 |
| 20260902163528 | 76 | 206 | 2.0 | 6.0 | 0.00 | 0.28 | 0.00 | 85 | 1018.7 |
| 20260902163047 | 76 | 114 | 1.0 | 6.0 | 0.00 | 0.28 | 0.00 | 87 | 1018.7 |
| 20260902162535 | 75 | 0 | 2.0 | 7.0 | 0.00 | 0.28 | 0.00 | 87 | 1018.7 |
| 20260902162027 | 75 | 60 | 1.0 | 7.0 | 0.00 | 0.28 | 0.00 | 87 | 1019.0 |
| 20260902161547 | 75 | 96 | 3.0 | 7.0 | 0.00 | 0.28 | 0.00 | 88 | 1018.9 |
| 20260902161032 | 75 | 122 | 1.0 | 6.0 | 0.00 | 0.28 | 0.00 | 90 | 1018.9 |
| 20260902160530 | 74 | 121 | 3.0 | 6.0 | 0.00 | 0.28 | 0.00 | 90 | 1018.9 |
| 20260902160045 | 74 | 136 | 1.0 | 4.0 | 0.00 | 0.28 | 0.00 | 91 | 1019.1 |
| 20260902155528 | 73 | 116 | 2.0 | 4.0 | 0.00 | 0.28 | 0.00 | 90 | 1019.1 |
| 20260902155030 | 73 | 107 | 1.0 | 4.0 | 0.00 | 0.28 | 0.00 | 91 | 1019.2 |
| 20260902154547 | 73 | 123 | 0.0 | 6.0 | 0.00 | 0.28 | 0.00 | 92 | 1019.1 |
| 20260902154028 | 73 | 123 | 2.0 | 6.0 | 0.00 | 0.28 | 0.00 | 92 | 1019.0 |
| 20260902153531 | 72 | 129 | 3.0 | 6.0 | 0.00 | 0.28 | 0.00 | 92 | 1019.1 |
| 20260902153047 | 72 | 118 | 2.0 | 8.0 | 0.00 | 0.28 | 0.00 | 92 | 1019.0 |
| 20260902152524 | 73 | 88 | 3.0 | 8.0 | 0.00 | 0.28 | 0.00 | 91 | 1018.9 |